| time (UTC) | temp F | wind direction | speed MPH | gust MPH | rain 1hr in | rain 24hr in | rain mn in | humidity % | barometer mb |
| 20260507191610 | 55 | 312 | 7.0 | 9.0 | 0.00 | 0.00 | 0.00 | 36 | 1011.4 |
| 20260507191107 | 55 | 312 | 7.0 | 9.0 | 0.00 | 0.00 | 0.00 | 36 | 1011.4 |
| 20260507190604 | 55 | 277 | 6.0 | 9.0 | 0.00 | 0.00 | 0.00 | 36 | 1011.7 |
| 20260507185601 | 55 | 254 | 4.0 | 6.0 | 0.00 | 0.00 | 0.00 | 37 | 1011.6 |
| 20260507185057 | 55 | 254 | 4.0 | 6.0 | 0.00 | 0.00 | 0.00 | 37 | 1011.6 |
| 20260507184555 | 55 | 254 | 4.0 | 6.0 | 0.00 | 0.00 | 0.00 | 37 | 1011.8 |
| 20260507184053 | 55 | 254 | 4.0 | 6.0 | 0.00 | 0.00 | 0.00 | 37 | 1012.0 |
| 20260507183549 | 55 | 254 | 4.0 | 6.0 | 0.00 | 0.00 | 0.00 | 37 | 1011.8 |
| 20260507183046 | 55 | 254 | 4.0 | 6.0 | 0.00 | 0.00 | 0.00 | 37 | 1011.8 |
| 20260507182542 | 55 | 254 | 4.0 | 6.0 | 0.00 | 0.00 | 0.00 | 37 | 1011.9 |
| 20260507182038 | 53 | 329 | 4.0 | 4.0 | 0.00 | 0.00 | 0.00 | 38 | 1011.9 |
| 20260507181536 | 53 | 329 | 4.0 | 4.0 | 0.00 | 0.00 | 0.00 | 38 | 1011.9 |
| 20260507181031 | 53 | 329 | 4.0 | 4.0 | 0.00 | 0.00 | 0.00 | 38 | 1012.0 |
| 20260507180528 | 53 | 329 | 4.0 | 4.0 | 0.00 | 0.00 | 0.00 | 38 | 1012.1 |
| 20260507180025 | 53 | 329 | 4.0 | 4.0 | 0.00 | 0.00 | 0.00 | 38 | 1012.1 |
| 20260507175521 | 53 | 329 | 4.0 | 4.0 | 0.00 | 0.00 | 0.00 | 38 | 1012.5 |
| 20260507175019 | 53 | 329 | 4.0 | 4.0 | 0.00 | 0.00 | 0.00 | 38 | 1012.5 |
| 20260507174516 | 53 | 329 | 4.0 | 4.0 | 0.00 | 0.00 | 0.00 | 38 | 1012.1 |
| 20260507174014 | 53 | 294 | 5.0 | 7.0 | 0.00 | 0.00 | 0.00 | 39 | 1012.2 |
| 20260507173510 | 53 | 294 | 5.0 | 7.0 | 0.00 | 0.00 | 0.00 | 39 | 1012.5 |
| 20260507173008 | 53 | 294 | 5.0 | 7.0 | 0.00 | 0.00 | 0.00 | 39 | 1012.5 |
| 20260507172503 | 53 | 294 | 5.0 | 7.0 | 0.00 | 0.00 | 0.00 | 39 | 1012.6 |
| 20260507172000 | 52 | 342 | 3.0 | 4.0 | 0.00 | 0.00 | 0.00 | 38 | 1012.6 |
| 20260507171455 | 51 | 282 | 2.0 | 3.0 | 0.00 | 0.00 | 0.00 | 41 | 1012.7 |
| 20260507170953 | 53 | 353 | 3.0 | 6.0 | 0.00 | 0.00 | 0.00 | 37 | 1012.8 |
| 20260507170450 | 53 | 237 | 5.0 | 8.0 | 0.00 | 0.00 | 0.00 | 40 | 1012.8 |
| 20260507165946 | 52 | 270 | 4.0 | 4.0 | 0.00 | 0.00 | 0.00 | 40 | 1013.0 |
| 20260507165442 | 51 | 262 | 8.0 | 13.0 | 0.00 | 0.00 | 0.00 | 38 | 1012.9 |
| 20260507164938 | 50 | 224 | 4.0 | 6.0 | 0.00 | 0.00 | 0.00 | 39 | 1012.8 |
| 20260507164435 | 51 | 215 | 3.0 | 7.0 | 0.00 | 0.00 | 0.00 | 38 | 1012.9 |
| 20260507163932 | 51 | 225 | 7.0 | 8.0 | 0.00 | 0.00 | 0.00 | 40 | 1013.1 |
| 20260507163430 | 51 | 240 | 2.0 | 2.0 | 0.00 | 0.00 | 0.00 | 42 | 1013.0 |
| 20260507162926 | 51 | 240 | 2.0 | 2.0 | 0.00 | 0.00 | 0.00 | 42 | 1012.9 |
| 20260507162421 | 51 | 251 | 3.0 | 4.0 | 0.00 | 0.00 | 0.00 | 42 | 1013.1 |
| 20260507161920 | 50 | 248 | 5.0 | 8.0 | 0.00 | 0.00 | 0.00 | 40 | 1013.0 |
| 20260507161415 | 50 | 206 | 2.0 | 2.0 | 0.00 | 0.00 | 0.00 | 42 | 1013.1 |
| 20260507160912 | 50 | 206 | 2.0 | 2.0 | 0.00 | 0.00 | 0.00 | 42 | 1013.2 |
| 20260507160408 | 50 | 206 | 2.0 | 8.0 | 0.00 | 0.00 | 0.00 | 42 | 1013.3 |
| 20260507155904 | 50 | 227 | 2.0 | 3.0 | 0.00 | 0.00 | 0.00 | 42 | 1013.2 |
| 20260507155400 | 50 | 210 | 0.0 | 1.0 | 0.00 | 0.00 | 0.00 | 42 | 1013.3 |
| 20260507154857 | 49 | 248 | 4.0 | 4.0 | 0.00 | 0.00 | 0.00 | 43 | 1013.2 |
| 20260507154354 | 49 | 206 | 6.0 | 7.0 | 0.00 | 0.00 | 0.00 | 41 | 1013.1 |
| 20260507153851 | 49 | 224 | 1.0 | 2.0 | 0.00 | 0.00 | 0.00 | 42 | 1013.3 |
| 20260507153347 | 48 | 292 | 2.0 | 6.0 | 0.00 | 0.00 | 0.00 | 46 | 1013.3 |
| 20260507152844 | 49 | 237 | 4.0 | 6.0 | 0.00 | 0.00 | 0.00 | 45 | 1013.2 |
| 20260507152340 | 48 | 258 | 5.0 | 6.0 | 0.00 | 0.00 | 0.00 | 44 | 1013.2 |
| 20260507151836 | 48 | 258 | 5.0 | 6.0 | 0.00 | 0.00 | 0.00 | 44 | 1013.3 |
| 20260507151332 | 48 | 258 | 5.0 | 6.0 | 0.00 | 0.00 | 0.00 | 44 | 1013.2 |
| 20260507150830 | 48 | 258 | 5.0 | 7.0 | 0.00 | 0.00 | 0.00 | 44 | 1013.2 |
| 20260507150321 | 49 | 194 | 2.0 | 6.0 | 0.00 | 0.00 | 0.00 | 46 | 1013.1 |
| 20260507145817 | 48 | 222 | 3.0 | 7.0 | 0.00 | 0.00 | 0.00 | 45 | 1013.4 |
| 20260507145313 | 47 | 280 | 5.0 | 7.0 | 0.00 | 0.00 | 0.00 | 45 | 1013.4 |
| 20260507144811 | 47 | 167 | 3.0 | 4.0 | 0.00 | 0.00 | 0.00 | 47 | 1013.4 |
| 20260507144308 | 48 | 237 | 3.0 | 6.0 | 0.00 | 0.00 | 0.00 | 47 | 1013.4 |
| 20260507143804 | 47 | 219 | 3.0 | 4.0 | 0.00 | 0.00 | 0.00 | 48 | 1013.3 |
| 20260507143302 | 46 | 168 | 2.0 | 8.0 | 0.00 | 0.00 | 0.00 | 50 | 1013.4 |
| 20260507142757 | 46 | 235 | 6.0 | 8.0 | 0.00 | 0.00 | 0.00 | 50 | 1013.5 |
| 20260507142254 | 46 | 215 | 4.0 | 6.0 | 0.00 | 0.00 | 0.00 | 51 | 1013.4 |
| 20260507141751 | 45 | 222 | 4.0 | 6.0 | 0.00 | 0.00 | 0.00 | 51 | 1013.5 |
| 20260507141248 | 44 | 156 | 1.0 | 8.0 | 0.00 | 0.00 | 0.00 | 53 | 1013.4 |
| 20260507140744 | 44 | 200 | 3.0 | 3.0 | 0.00 | 0.00 | 0.00 | 51 | 1013.3 |
| 20260507140242 | 44 | 217 | 2.0 | 3.0 | 0.00 | 0.00 | 0.00 | 53 | 1013.3 |
| 20260507135738 | 43 | 214 | 4.0 | 6.0 | 0.00 | 0.00 | 0.00 | 54 | 1013.4 |
| 20260507135236 | 43 | 230 | 2.0 | 6.0 | 0.00 | 0.00 | 0.00 | 60 | 1013.3 |
| 20260507134732 | 43 | 161 | 2.0 | 4.0 | 0.00 | 0.00 | 0.00 | 60 | 1013.1 |
| 20260507134228 | 43 | 204 | 2.0 | 4.0 | 0.00 | 0.00 | 0.00 | 58 | 1013.3 |
| 20260507133724 | 42 | 232 | 1.0 | 2.0 | 0.00 | 0.00 | 0.00 | 63 | 1013.3 |
| 20260507133221 | 42 | 241 | 4.0 | 7.0 | 0.00 | 0.00 | 0.00 | 62 | 1013.3 |
| 20260507132719 | 42 | 235 | 2.0 | 6.0 | 0.00 | 0.00 | 0.00 | 62 | 1013.4 |
| 20260507132215 | 41 | 166 | 1.0 | 3.0 | 0.00 | 0.00 | 0.00 | 64 | 1013.4 |
| 20260507131712 | 41 | 144 | 2.0 | 3.0 | 0.00 | 0.00 | 0.00 | 66 | 1013.5 |
| 20260507131210 | 41 | 239 | 1.0 | 6.0 | 0.00 | 0.00 | 0.00 | 68 | 1013.3 |
| 20260507130706 | 40 | 218 | 3.0 | 4.0 | 0.00 | 0.00 | 0.00 | 67 | 1013.5 |
| 20260507130204 | 40 | 177 | 2.0 | 2.0 | 0.00 | 0.00 | 0.00 | 68 | 1013.7 |
| 20260507125702 | 40 | 177 | 2.0 | 2.0 | 0.00 | 0.00 | 0.00 | 68 | 1013.5 |
| 20260507125200 | 39 | 212 | 1.0 | 3.0 | 0.00 | 0.00 | 0.00 | 69 | 1013.6 |
| 20260507124656 | 39 | 236 | 1.0 | 3.0 | 0.00 | 0.00 | 0.00 | 70 | 1013.4 |
| 20260507124153 | 39 | 208 | 1.0 | 2.0 | 0.00 | 0.00 | 0.00 | 70 | 1013.3 |
| 20260507123652 | 38 | 183 | 0.0 | 1.0 | 0.00 | 0.00 | 0.00 | 71 | 1013.3 |
| 20260507123148 | 38 | 222 | 1.0 | 2.0 | 0.00 | 0.00 | 0.00 | 72 | 1013.3 |
| 20260507122643 | 38 | 205 | 0.0 | 1.0 | 0.00 | 0.00 | 0.00 | 73 | 1013.4 |
| 20260507122139 | 37 | 215 | 1.0 | 2.0 | 0.00 | 0.00 | 0.00 | 73 | 1013.4 |
| 20260507121635 | 37 | 235 | 1.0 | 2.0 | 0.00 | 0.00 | 0.00 | 73 | 1013.3 |
| 20260507121132 | 37 | 182 | 0.0 | 3.0 | 0.00 | 0.00 | 0.00 | 74 | 1013.4 |
| 20260507120628 | 36 | 167 | 2.0 | 2.0 | 0.00 | 0.00 | 0.00 | 74 | 1013.4 |
| 20260507120125 | 36 | 179 | 1.0 | 3.0 | 0.00 | 0.00 | 0.00 | 75 | 1013.3 |
| 20260507115621 | 35 | 206 | 0.0 | 3.0 | 0.00 | 0.00 | 0.00 | 75 | 1013.2 |
| 20260507115117 | 35 | 180 | 0.0 | 1.0 | 0.00 | 0.00 | 0.00 | 76 | 1013.3 |
| 20260507114613 | 34 | 221 | 2.0 | 3.0 | 0.00 | 0.00 | 0.00 | 78 | 1013.3 |
| 20260507114110 | 33 | 201 | 2.0 | 3.0 | 0.00 | 0.00 | 0.00 | 79 | 1013.3 |
| 20260507113608 | 33 | 190 | 0.0 | 1.0 | 0.00 | 0.00 | 0.00 | 81 | 1013.1 |
| 20260507113105 | 32 | 199 | 0.0 | 1.0 | 0.00 | 0.00 | 0.00 | 83 | 1013.1 |
| 20260507112603 | 32 | 196 | 0.0 | 1.0 | 0.00 | 0.00 | 0.00 | 83 | 1013.4 |
| 20260507112059 | 31 | 172 | 0.0 | 1.0 | 0.00 | 0.00 | 0.00 | 87 | 1013.2 |
| 20260507111555 | 31 | 172 | 0.0 | 1.0 | 0.00 | 0.00 | 0.00 | 87 | 1013.4 |
| 20260507111052 | 28 | 195 | 0.0 | 0.0 | 0.00 | 0.00 | 0.00 | 91 | 1013.3 |
| 20260507110548 | 28 | 195 | 0.0 | 0.0 | 0.00 | 0.00 | 0.00 | 91 | 1013.3 |
| 20260507110045 | 28 | 195 | 0.0 | 0.0 | 0.00 | 0.00 | 0.00 | 91 | 1013.2 |
| 20260507105542 | 28 | 195 | 0.0 | 0.0 | 0.00 | 0.00 | 0.00 | 91 | 1013.4 |
| 20260507105038 | 28 | 195 | 0.0 | 0.0 | 0.00 | 0.00 | 0.00 | 91 | 1013.4 |
| 20260507104536 | 29 | 201 | 0.0 | 0.0 | 0.00 | 0.00 | 0.00 | 90 | 1013.4 |
| 20260507104032 | 29 | 201 | 0.0 | 0.0 | 0.00 | 0.00 | 0.00 | 90 | 1013.6 |
| 20260507103528 | 29 | 190 | 0.0 | 0.0 | 0.00 | 0.00 | 0.00 | 88 | 1013.5 |
| 20260507103025 | 30 | 201 | 0.0 | 0.0 | 0.00 | 0.00 | 0.00 | 86 | 1013.5 |
| 20260507102522 | 31 | 208 | 0.0 | 0.0 | 0.00 | 0.00 | 0.00 | 84 | 1013.5 |
| 20260507102018 | 31 | 208 | 0.0 | 0.0 | 0.00 | 0.00 | 0.00 | 84 | 1013.5 |
| 20260507101513 | 31 | 196 | 0.0 | 0.0 | 0.00 | 0.00 | 0.00 | 83 | 1013.6 |
| 20260507101010 | 32 | 184 | 0.0 | 0.0 | 0.00 | 0.00 | 0.00 | 82 | 1013.6 |
| 20260507100507 | 32 | 184 | 0.0 | 0.0 | 0.00 | 0.00 | 0.00 | 82 | 1013.4 |
| 20260507100006 | 32 | 173 | 1.0 | 1.0 | 0.00 | 0.00 | 0.00 | 83 | 1013.5 |
| 20260507095503 | 30 | 194 | 0.0 | 0.0 | 0.00 | 0.00 | 0.00 | 87 | 1013.4 |
| 20260507094959 | 30 | 194 | 0.0 | 0.0 | 0.00 | 0.00 | 0.00 | 87 | 1013.5 |
| 20260507094455 | 30 | 194 | 0.0 | 0.0 | 0.00 | 0.00 | 0.00 | 87 | 1013.3 |
| 20260507093953 | 30 | 194 | 0.0 | 0.0 | 0.00 | 0.00 | 0.00 | 87 | 1013.5 |
| 20260507093450 | 30 | 194 | 0.0 | 0.0 | 0.00 | 0.00 | 0.00 | 87 | 1013.5 |
| 20260507092949 | 30 | 194 | 0.0 | 0.0 | 0.00 | 0.00 | 0.00 | 87 | 1013.6 |
| 20260507092445 | 30 | 194 | 0.0 | 0.0 | 0.00 | 0.00 | 0.00 | 87 | 1013.6 |
| 20260507091941 | 30 | 194 | 0.0 | 0.0 | 0.00 | 0.00 | 0.00 | 87 | 1013.7 |
| 20260507091438 | 30 | 194 | 0.0 | 0.0 | 0.00 | 0.00 | 0.00 | 87 | 1013.7 |
| 20260507090934 | 30 | 194 | 0.0 | 0.0 | 0.00 | 0.00 | 0.00 | 87 | 1013.6 |
| 20260507090430 | 30 | 190 | 0.0 | 0.0 | 0.00 | 0.00 | 0.00 | 84 | 1013.6 |
| 20260507085926 | 30 | 182 | 0.0 | 0.0 | 0.00 | 0.00 | 0.00 | 83 | 1013.5 |
| 20260507085424 | 30 | 192 | 0.0 | 0.0 | 0.00 | 0.00 | 0.00 | 81 | 1013.6 |
| 20260507084915 | 31 | 192 | 0.0 | 1.0 | 0.00 | 0.00 | 0.00 | 81 | 1013.7 |
| 20260507084412 | 31 | 197 | 0.0 | 0.0 | 0.00 | 0.00 | 0.00 | 78 | 1013.8 |
| 20260507083909 | 32 | 170 | 0.0 | 1.0 | 0.00 | 0.00 | 0.00 | 76 | 1013.7 |
| 20260507083405 | 33 | 208 | 1.0 | 1.0 | 0.00 | 0.00 | 0.00 | 75 | 1013.7 |
| 20260507082902 | 33 | 195 | 0.0 | 0.0 | 0.00 | 0.00 | 0.00 | 73 | 1013.8 |
| 20260507082357 | 33 | 181 | 1.0 | 1.0 | 0.00 | 0.00 | 0.00 | 74 | 1013.7 |
| 20260507081855 | 33 | 181 | 1.0 | 1.0 | 0.00 | 0.00 | 0.00 | 74 | 1013.6 |
| 20260507081351 | 32 | 230 | 0.0 | 1.0 | 0.00 | 0.00 | 0.00 | 77 | 1013.7 |
| 20260507080848 | 31 | 193 | 0.0 | 1.0 | 0.00 | 0.00 | 0.00 | 79 | 1013.6 |
| 20260507080344 | 30 | 199 | 0.0 | 0.0 | 0.00 | 0.00 | 0.00 | 81 | 1013.5 |
| 20260507075839 | 31 | 191 | 0.0 | 0.0 | 0.00 | 0.00 | 0.00 | 81 | 1013.6 |
| 20260507075336 | 31 | 185 | 0.0 | 0.0 | 0.00 | 0.00 | 0.00 | 81 | 1013.7 |
| 20260507074832 | 31 | 192 | 1.0 | 2.0 | 0.00 | 0.00 | 0.00 | 82 | 1013.4 |
| 20260507074330 | 31 | 187 | 0.0 | 0.0 | 0.00 | 0.00 | 0.00 | 80 | 1013.8 |
| 20260507073827 | 31 | 194 | 0.0 | 0.0 | 0.00 | 0.00 | 0.00 | 80 | 1013.7 |
| 20260507073323 | 32 | 173 | 0.0 | 0.0 | 0.00 | 0.00 | 0.00 | 80 | 1013.8 |
| 20260507072821 | 32 | 199 | 0.0 | 0.0 | 0.00 | 0.00 | 0.00 | 80 | 1013.7 |
| 20260507072318 | 0 | 0.0 | 0.0 | 0.00 | 0.00 | 0.00 | 1013.8 | ||
| 20260507071815 | 0 | 0.0 | 0.0 | 0.00 | 0.00 | 0.00 | 1013.8 | ||
| 20260507071312 | 0 | 0.0 | 0.0 | 0.00 | 0.00 | 0.00 | 1013.9 | ||
| 20260507070809 | 0 | 0.0 | 0.0 | 0.00 | 0.00 | 0.00 | 1014.0 | ||
| 20260507070306 | 0 | 0.0 | 0.0 | 0.00 | 0.00 | 0.00 | 1014.0 | ||
| 20260507065802 | 0 | 0.0 | 0.0 | 0.00 | 0.00 | 0.00 | 1014.0 | ||
| 20260507065259 | 0 | 0.0 | 0.0 | 0.00 | 0.00 | 0.00 | 1013.9 | ||
| 20260507064756 | 0 | 0.0 | 0.0 | 0.00 | 0.00 | 0.00 | 1014.3 | ||
| 20260507064255 | 0 | 0.0 | 0.0 | 0.00 | 0.00 | 0.00 | 1014.1 | ||
| 20260507063753 | 0 | 0.0 | 0.0 | 0.00 | 0.00 | 0.00 | 1014.2 | ||
| 20260507063249 | 0 | 0.0 | 0.0 | 0.00 | 0.00 | 0.00 | 1014.2 | ||
| 20260507062746 | 29 | 188 | 0.0 | 0.0 | 0.00 | 0.00 | 0.00 | 88 | 1014.2 |
| 20260507062243 | 29 | 188 | 0.0 | 0.0 | 0.00 | 0.00 | 0.00 | 88 | 1014.3 |
| 20260507061741 | 29 | 188 | 0.0 | 0.0 | 0.00 | 0.00 | 0.00 | 88 | 1014.4 |
| 20260507061239 | 29 | 188 | 0.0 | 0.0 | 0.00 | 0.00 | 0.00 | 88 | 1014.3 |
| 20260507060737 | 29 | 188 | 0.0 | 0.0 | 0.00 | 0.00 | 0.00 | 88 | 1014.5 |
| 20260507060233 | 29 | 188 | 0.0 | 0.0 | 0.00 | 0.00 | 0.00 | 88 | 1014.5 |
| 20260507055729 | 29 | 188 | 0.0 | 0.0 | 0.00 | 0.00 | 0.00 | 88 | 1014.5 |
| 20260507055225 | 29 | 188 | 0.0 | 0.0 | 0.00 | 0.00 | 0.00 | 88 | 1014.5 |
| 20260507054721 | 29 | 188 | 0.0 | 0.0 | 0.00 | 0.00 | 0.00 | 88 | 1014.5 |
| 20260507054218 | 29 | 188 | 0.0 | 0.0 | 0.00 | 0.00 | 0.00 | 88 | 1014.5 |
| 20260507053716 | 29 | 188 | 0.0 | 0.0 | 0.00 | 0.00 | 0.00 | 88 | 1014.7 |
| 20260507053213 | 29 | 188 | 0.0 | 0.0 | 0.00 | 0.00 | 0.00 | 88 | 1014.7 |
| 20260507052712 | 30 | 187 | 0.0 | 0.0 | 0.00 | 0.00 | 0.00 | 86 | 1015.0 |
| 20260507052208 | 30 | 187 | 0.0 | 0.0 | 0.00 | 0.00 | 0.00 | 86 | 1015.0 |
| 20260507051706 | 30 | 187 | 0.0 | 0.0 | 0.00 | 0.00 | 0.00 | 86 | 1015.0 |
| 20260507051203 | 30 | 187 | 0.0 | 0.0 | 0.00 | 0.00 | 0.00 | 86 | 1015.1 |
| 20260507050659 | 32 | 202 | 0.0 | 0.0 | 0.00 | 0.00 | 0.00 | 82 | 1015.1 |
| 20260507050156 | 32 | 202 | 0.0 | 0.0 | 0.00 | 0.00 | 0.00 | 82 | 1015.3 |
| 20260507045653 | 32 | 202 | 0.0 | 0.0 | 0.00 | 0.00 | 0.00 | 82 | 1015.2 |
| 20260507045149 | 32 | 202 | 0.0 | 0.0 | 0.00 | 0.00 | 0.00 | 82 | 1015.3 |
| 20260507044646 | 32 | 202 | 0.0 | 0.0 | 0.00 | 0.00 | 0.00 | 82 | 1015.3 |
| 20260507044143 | 32 | 202 | 0.0 | 0.0 | 0.00 | 0.00 | 0.00 | 82 | 1015.4 |
| 20260507043639 | 33 | 202 | 0.0 | 0.0 | 0.00 | 0.00 | 0.00 | 78 | 1015.4 |
| 20260507043136 | 33 | 202 | 0.0 | 0.0 | 0.00 | 0.00 | 0.00 | 78 | 1015.3 |
| 20260507042632 | 33 | 202 | 0.0 | 0.0 | 0.00 | 0.00 | 0.00 | 78 | 1015.4 |
| 20260507042127 | 33 | 202 | 0.0 | 0.0 | 0.00 | 0.00 | 0.00 | 78 | 1015.4 |
| 20260507041625 | 0 | 0.0 | 0.0 | 0.00 | 0.00 | 0.00 | 1015.4 | ||
| 20260507041121 | 0 | 0.0 | 0.0 | 0.00 | 0.00 | 0.00 | 1015.4 | ||
| 20260507040619 | 0 | 0.0 | 0.0 | 0.00 | 0.00 | 0.00 | 1015.6 | ||
| 20260507040115 | 0 | 0.0 | 0.0 | 0.00 | 0.00 | 0.00 | 1015.6 | ||
| 20260507035611 | 0 | 0.0 | 0.0 | 0.00 | 0.00 | 0.00 | 1015.5 | ||
| 20260507035108 | 0 | 0.0 | 0.0 | 0.00 | 0.00 | 0.00 | 1015.4 | ||
| 20260507034604 | 0 | 0.0 | 0.0 | 0.00 | 0.00 | 0.00 | 1015.6 | ||
| 20260507034102 | 0 | 0.0 | 0.0 | 0.00 | 0.00 | 0.00 | 1015.7 | ||
| 20260507033600 | 0 | 0.0 | 0.0 | 0.00 | 0.00 | 0.00 | 1015.6 | ||
| 20260507033057 | 0 | 0.0 | 0.0 | 0.00 | 0.00 | 0.00 | 1015.5 | ||
| 20260507032554 | 0 | 0.0 | 0.0 | 0.00 | 0.00 | 0.00 | 1015.8 | ||
| 20260507032050 | 0 | 0.0 | 0.0 | 0.00 | 0.00 | 0.00 | 1015.7 | ||
| 20260507031546 | 0 | 0.0 | 0.0 | 0.00 | 0.00 | 0.00 | 1015.8 | ||
| 20260507031044 | 0 | 0.0 | 0.0 | 0.00 | 0.00 | 0.00 | 1015.9 | ||
| 20260507030540 | 0 | 0.0 | 0.0 | 0.00 | 0.00 | 0.00 | 1015.8 | ||
| 20260507030038 | 0 | 0.0 | 0.0 | 0.00 | 0.00 | 0.00 | 1015.8 | ||
| 20260507025535 | 0 | 0.0 | 0.0 | 0.00 | 0.00 | 0.00 | 1016.0 | ||
| 20260507025032 | 0 | 0.0 | 0.0 | 0.00 | 0.00 | 0.00 | 1015.8 | ||
| 20260507024530 | 0 | 0.0 | 0.0 | 0.00 | 0.00 | 0.00 | 1015.8 | ||
| 20260507024026 | 0 | 0.0 | 0.0 | 0.00 | 0.00 | 0.00 | 1016.1 | ||
| 20260507023522 | 0 | 0.0 | 0.0 | 0.00 | 0.00 | 0.00 | 1016.2 | ||
| 20260507023020 | 0 | 0.0 | 0.0 | 0.00 | 0.00 | 0.00 | 1015.9 | ||
| 20260507022517 | 40 | 304 | 1.0 | 1.0 | 0.00 | 0.00 | 0.00 | 56 | 1015.8 |
| 20260507022012 | 40 | 304 | 1.0 | 1.0 | 0.00 | 0.00 | 0.00 | 56 | 1016.0 |
| 20260507021508 | 40 | 304 | 1.0 | 1.0 | 0.00 | 0.00 | 0.00 | 56 | 1015.9 |
| 20260507020959 | 40 | 304 | 1.0 | 1.0 | 0.00 | 0.00 | 0.00 | 56 | 1015.9 |
| 20260507020456 | 40 | 304 | 1.0 | 1.0 | 0.00 | 0.00 | 0.00 | 56 | 1015.9 |
| 20260507015953 | 40 | 304 | 1.0 | 1.0 | 0.00 | 0.00 | 0.00 | 56 | 1015.9 |
| 20260507015452 | 40 | 304 | 1.0 | 1.0 | 0.00 | 0.00 | 0.00 | 56 | 1015.9 |
| 20260507014948 | 40 | 304 | 1.0 | 1.0 | 0.00 | 0.00 | 0.00 | 56 | 1015.6 |
| 20260507014445 | 40 | 304 | 1.0 | 1.0 | 0.00 | 0.00 | 0.00 | 56 | 1015.7 |
| 20260507013941 | 40 | 304 | 1.0 | 1.0 | 0.00 | 0.00 | 0.00 | 56 | 1015.8 |
| 20260507013438 | 40 | 304 | 1.0 | 1.0 | 0.00 | 0.00 | 0.00 | 56 | 1015.7 |
| 20260507012935 | 40 | 304 | 1.0 | 1.0 | 0.00 | 0.00 | 0.00 | 56 | 1015.7 |
| 20260507012432 | 41 | 321 | 2.0 | 2.0 | 0.00 | 0.00 | 0.00 | 56 | 1015.5 |
| 20260507011928 | 41 | 321 | 2.0 | 2.0 | 0.00 | 0.00 | 0.00 | 56 | 1015.7 |
| 20260507011425 | 41 | 330 | 2.0 | 3.0 | 0.00 | 0.00 | 0.00 | 56 | 1015.7 |
| 20260507010920 | 41 | 313 | 2.0 | 3.0 | 0.00 | 0.00 | 0.00 | 55 | 1015.7 |
| 20260507010415 | 41 | 257 | 0.0 | 0.0 | 0.00 | 0.00 | 0.00 | 56 | 1015.5 |
| 20260507005913 | 41 | 267 | 0.0 | 1.0 | 0.00 | 0.00 | 0.00 | 55 | 1015.4 |
| 20260507005409 | 41 | 291 | 3.0 | 3.0 | 0.00 | 0.00 | 0.00 | 55 | 1015.8 |
| 20260507004906 | 41 | 282 | 1.0 | 1.0 | 0.00 | 0.00 | 0.00 | 56 | 1015.7 |
| 20260507004403 | 41 | 282 | 1.0 | 1.0 | 0.00 | 0.00 | 0.00 | 56 | 1015.7 |
| 20260507003900 | 41 | 294 | 2.0 | 4.0 | 0.00 | 0.00 | 0.00 | 53 | 1015.6 |
| 20260507003355 | 41 | 297 | 4.0 | 4.0 | 0.00 | 0.00 | 0.00 | 54 | 1015.7 |
| 20260507002851 | 41 | 297 | 4.0 | 4.0 | 0.00 | 0.00 | 0.00 | 54 | 1015.6 |
| 20260507002347 | 41 | 308 | 4.0 | 6.0 | 0.00 | 0.00 | 0.00 | 53 | 1015.7 |
| 20260507001844 | 41 | 270 | 3.0 | 3.0 | 0.00 | 0.00 | 0.00 | 54 | 1015.5 |
| 20260507001341 | 41 | 270 | 3.0 | 3.0 | 0.00 | 0.00 | 0.00 | 54 | 1015.7 |
| 20260507000838 | 41 | 270 | 3.0 | 3.0 | 0.00 | 0.00 | 0.00 | 54 | 1016.0 |
| 20260507000335 | 41 | 270 | 3.0 | 3.0 | 0.00 | 0.00 | 0.00 | 54 | 1016.0 |
| 20260506235830 | 41 | 270 | 3.0 | 3.0 | 0.00 | 0.00 | 0.00 | 54 | 1016.0 |
| 20260506235327 | 41 | 270 | 3.0 | 4.0 | 0.00 | 0.00 | 0.00 | 54 | 1016.0 |
| 20260506234823 | 0 | 0.0 | 0.0 | 0.00 | 0.00 | 0.00 | 1016.0 | ||
| 20260506234321 | 0 | 0.0 | 0.0 | 0.00 | 0.00 | 0.00 | 1016.2 | ||
| 20260506233818 | 0 | 0.0 | 0.0 | 0.00 | 0.00 | 0.00 | 1016.3 | ||
| 20260506233313 | 0 | 0.0 | 0.0 | 0.00 | 0.00 | 0.00 | 1016.2 | ||
| 20260506232810 | 0 | 0.0 | 0.0 | 0.00 | 0.00 | 0.00 | 1016.3 | ||
| 20260506232306 | 0 | 0.0 | 0.0 | 0.00 | 0.00 | 0.00 | 1016.1 | ||
| 20260506231802 | 0 | 0.0 | 0.0 | 0.00 | 0.00 | 0.00 | 1016.3 | ||
| 20260506231300 | 42 | 308 | 4.0 | 4.0 | 0.00 | 0.00 | 0.00 | 53 | 1016.3 |
| 20260506230757 | 42 | 308 | 4.0 | 4.0 | 0.00 | 0.00 | 0.00 | 53 | 1016.4 |
| 20260506230249 | 42 | 308 | 4.0 | 4.0 | 0.00 | 0.00 | 0.00 | 53 | 1016.3 |
| 20260506225746 | 42 | 308 | 4.0 | 4.0 | 0.00 | 0.00 | 0.00 | 53 | 1016.3 |
| 20260506225243 | 42 | 308 | 4.0 | 4.0 | 0.00 | 0.00 | 0.00 | 53 | 1016.3 |
| 20260506224739 | 42 | 308 | 4.0 | 4.0 | 0.00 | 0.00 | 0.00 | 53 | 1016.3 |
| 20260506224237 | 42 | 308 | 4.0 | 4.0 | 0.00 | 0.00 | 0.00 | 53 | 1016.4 |
| 20260506223732 | 42 | 308 | 4.0 | 4.0 | 0.00 | 0.00 | 0.00 | 53 | 1016.3 |
| 20260506223228 | 42 | 308 | 4.0 | 4.0 | 0.00 | 0.00 | 0.00 | 53 | 1016.5 |
| 20260506222725 | 42 | 308 | 4.0 | 4.0 | 0.00 | 0.00 | 0.00 | 53 | 1016.5 |
| 20260506222220 | 42 | 308 | 4.0 | 4.0 | 0.00 | 0.00 | 0.00 | 53 | 1016.5 |
| 20260506221718 | 42 | 308 | 4.0 | 4.0 | 0.00 | 0.00 | 0.00 | 53 | 1016.6 |
| 20260506221216 | 42 | 293 | 4.0 | 7.0 | 0.00 | 0.00 | 0.00 | 55 | 1016.6 |
| 20260506220708 | 42 | 258 | 3.0 | 6.0 | 0.00 | 0.00 | 0.00 | 54 | 1016.6 |
| 20260506220202 | 41 | 298 | 5.0 | 7.0 | 0.00 | 0.00 | 0.00 | 52 | 1016.5 |
| 20260506215659 | 42 | 298 | 5.0 | 6.0 | 0.00 | 0.00 | 0.00 | 54 | 1016.7 |
| 20260506215155 | 41 | 288 | 3.0 | 4.0 | 0.00 | 0.00 | 0.00 | 53 | 1016.7 |
| 20260506214652 | 41 | 247 | 4.0 | 6.0 | 0.00 | 0.00 | 0.00 | 52 | 1016.8 |
| 20260506214149 | 41 | 267 | 5.0 | 6.0 | 0.00 | 0.00 | 0.00 | 53 | 1016.7 |
| 20260506213648 | 41 | 267 | 5.0 | 6.0 | 0.00 | 0.00 | 0.00 | 53 | 1016.9 |
| 20260506213144 | 41 | 265 | 4.0 | 7.0 | 0.00 | 0.00 | 0.00 | 55 | 1016.9 |
| 20260506212642 | 41 | 280 | 3.0 | 7.0 | 0.00 | 0.00 | 0.00 | 55 | 1016.8 |
| 20260506212136 | 41 | 318 | 3.0 | 7.0 | 0.00 | 0.00 | 0.00 | 55 | 1016.8 |
| 20260506211632 | 41 | 273 | 8.0 | 10.0 | 0.00 | 0.00 | 0.00 | 53 | 1017.0 |
| 20260506211129 | 41 | 254 | 5.0 | 8.0 | 0.00 | 0.00 | 0.00 | 54 | 1017.0 |
| 20260506210627 | 41 | 297 | 4.0 | 4.0 | 0.00 | 0.00 | 0.00 | 55 | 1017.1 |
| 20260506210123 | 41 | 305 | 6.0 | 7.0 | 0.00 | 0.00 | 0.00 | 54 | 1017.4 |
| 20260506205620 | 41 | 289 | 7.0 | 11.0 | 0.00 | 0.00 | 0.00 | 54 | 1017.4 |
| 20260506205114 | 41 | 267 | 5.0 | 11.0 | 0.00 | 0.00 | 0.00 | 54 | 1017.4 |
| 20260506204613 | 41 | 311 | 4.0 | 8.0 | 0.00 | 0.00 | 0.00 | 56 | 1017.2 |
| 20260506204109 | 41 | 324 | 6.0 | 9.0 | 0.00 | 0.00 | 0.00 | 55 | 1017.1 |
| 20260506203608 | 40 | 290 | 4.0 | 8.0 | 0.00 | 0.00 | 0.00 | 54 | 1017.5 |
| 20260506203104 | 41 | 277 | 9.0 | 10.0 | 0.00 | 0.00 | 0.00 | 54 | 1017.5 |
| 20260506202602 | 41 | 310 | 6.0 | 8.0 | 0.00 | 0.00 | 0.00 | 54 | 1017.2 |
| 20260506202058 | 41 | 259 | 6.0 | 7.0 | 0.00 | 0.00 | 0.00 | 55 | 1017.4 |
| 20260506201555 | 41 | 298 | 6.0 | 9.0 | 0.00 | 0.00 | 0.00 | 55 | 1017.4 |
| 20260506201052 | 41 | 267 | 3.0 | 7.0 | 0.00 | 0.00 | 0.00 | 57 | 1017.2 |
| 20260506200548 | 41 | 277 | 2.0 | 4.0 | 0.00 | 0.00 | 0.00 | 58 | 1017.2 |
| 20260506200045 | 41 | 280 | 7.0 | 9.0 | 0.00 | 0.00 | 0.00 | 55 | 1017.4 |
| 20260506195542 | 41 | 271 | 4.0 | 10.0 | 0.00 | 0.00 | 0.00 | 54 | 1017.2 |
| 20260506195038 | 41 | 267 | 4.0 | 10.0 | 0.00 | 0.00 | 0.00 | 55 | 1017.5 |
| 20260506194536 | 41 | 249 | 4.0 | 13.0 | 0.00 | 0.00 | 0.00 | 54 | 1017.5 |
| 20260506194032 | 41 | 14 | 5.0 | 8.0 | 0.00 | 0.00 | 0.00 | 55 | 1017.1 |
| 20260506193530 | 41 | 258 | 4.0 | 9.0 | 0.00 | 0.00 | 0.00 | 55 | 1017.5 |
| 20260506193027 | 41 | 259 | 5.0 | 10.0 | 0.00 | 0.00 | 0.00 | 54 | 1017.2 |
| 20260506192523 | 41 | 257 | 7.0 | 10.0 | 0.00 | 0.00 | 0.00 | 54 | 1017.4 |
| 20260506192019 | 42 | 283 | 6.0 | 9.0 | 0.00 | 0.00 | 0.00 | 53 | 1017.2 |